Time,TemperatureF,DewpointF,PressureIn,WindDirection,WindDirectionDegrees,WindSpeedMPH,WindSpeedGustMPH,Humidity,HourlyPrecipIn,Conditions,Clouds,dailyrainin,SoftwareType,DateUTC
2013-02-09 00:18:00,42.3,30.0,30.06,SSW,209,0.0,-999.0,63,-99.99,,,0.00,weatherlink.com 1.10,2013-02-09 05:18:00,
2013-02-09 00:31:00,41.6,30.0,30.06,South,188,0.0,-999.0,64,-99.99,,,0.00,weatherlink.com 1.10,2013-02-09 05:31:00,
2013-02-09 00:47:00,41.3,30.0,30.06,South,184,0.0,-999.0,64,-99.99,,,0.00,weatherlink.com 1.10,2013-02-09 05:47:00,
2013-02-09 01:16:00,41.2,30.0,30.06,South,178,0.0,-999.0,64,-99.99,,,0.00,weatherlink.com 1.10,2013-02-09 06:16:00,
2013-02-09 01:31:00,40.7,30.0,30.07,SSE,162,0.0,-999.0,65,-99.99,,,0.00,weatherlink.com 1.10,2013-02-09 06:31:00,
2013-02-09 01:47:00,40.4,29.0,30.08,SSW,209,0.0,-999.0,63,-99.99,,,0.00,weatherlink.com 1.10,2013-02-09 06:47:00,
2013-02-09 02:16:00,40.4,29.0,30.08,SSW,209,0.0,-999.0,64,-99.99,,,0.00,weatherlink.com 1.10,2013-02-09 07:16:00,
2013-02-09 02:30:00,39.3,28.0,30.08,South,170,0.0,-999.0,64,-99.99,,,0.00,weatherlink.com 1.10,2013-02-09 07:30:00,
2013-02-09 02:47:00,39.2,27.0,30.08,South,180,0.0,-999.0,63,-99.99,,,0.00,weatherlink.com 1.10,2013-02-09 07:47:00,
2013-02-09 03:16:00,39.2,27.0,30.08,South,180,0.0,-999.0,63,-99.99,,,0.00,weatherlink.com 1.10,2013-02-09 08:16:00,
2013-02-09 03:31:00,38.6,27.0,30.08,South,180,0.0,-999.0,64,-99.99,,,0.00,weatherlink.com 1.10,2013-02-09 08:31:00,
2013-02-09 03:46:00,38.3,27.0,30.09,South,180,0.0,-999.0,64,-99.99,,,0.00,weatherlink.com 1.10,2013-02-09 08:46:00,
2013-02-09 04:16:00,38.0,27.0,30.09,South,180,0.0,-999.0,66,-99.99,,,0.00,weatherlink.com 1.10,2013-02-09 09:16:00,
2013-02-09 04:31:00,35.6,29.0,30.12,South,180,0.0,-999.0,76,-99.99,,,0.00,weatherlink.com 1.10,2013-02-09 09:31:00,
2013-02-09 04:47:00,34.4,27.0,30.12,South,180,0.0,-999.0,75,-99.99,,,0.00,weatherlink.com 1.10,2013-02-09 09:47:00,
2013-02-09 05:17:00,34.0,27.0,30.13,South,180,0.0,-999.0,76,-99.99,,,0.00,weatherlink.com 1.10,2013-02-09 10:17:00,
2013-02-09 05:32:00,33.1,29.0,30.15,South,180,0.0,-999.0,83,-99.99,,,0.00,weatherlink.com 1.10,2013-02-09 10:32:00,
2013-02-09 05:46:00,32.6,28.0,30.16,South,180,0.0,-999.0,82,-99.99,,,0.00,weatherlink.com 1.10,2013-02-09 10:46:00,
2013-02-09 06:16:00,32.4,28.0,30.16,South,180,0.0,-999.0,83,-99.99,,,0.00,weatherlink.com 1.10,2013-02-09 11:16:00,
2013-02-09 06:31:00,30.7,27.0,30.19,South,180,0.0,-999.0,85,-99.99,,,0.00,weatherlink.com 1.10,2013-02-09 11:31:00,
2013-02-09 06:46:00,30.4,27.0,30.20,South,180,0.0,-999.0,86,-99.99,,,0.00,weatherlink.com 1.10,2013-02-09 11:46:00,
2013-02-09 07:16:00,30.3,27.0,30.20,South,180,0.0,-999.0,87,-99.99,,,0.00,weatherlink.com 1.10,2013-02-09 12:16:00,
2013-02-09 07:31:00,30.6,28.0,30.23,South,180,0.0,-999.0,88,-99.99,,,0.00,weatherlink.com 1.10,2013-02-09 12:31:00,
2013-02-09 07:46:00,30.8,28.0,30.23,South,180,0.0,-999.0,88,-99.99,,,0.00,weatherlink.com 1.10,2013-02-09 12:46:00,
2013-02-09 08:16:00,30.8,28.0,30.24,South,180,0.0,-999.0,88,-99.99,,,0.00,weatherlink.com 1.10,2013-02-09 13:16:00,
2013-02-09 08:31:00,31.9,28.0,30.26,South,180,0.0,-999.0,85,-99.99,,,0.00,weatherlink.com 1.10,2013-02-09 13:31:00,
2013-02-09 08:46:00,33.7,28.0,30.27,South,180,0.0,-999.0,81,-99.99,,,0.00,weatherlink.com 1.10,2013-02-09 13:46:00,
2013-02-09 09:16:00,34.3,29.0,30.27,South,180,0.0,-999.0,80,-99.99,,,0.00,weatherlink.com 1.10,2013-02-09 14:16:00,
2013-02-09 09:31:00,38.7,26.0,30.27,South,186,0.0,-999.0,61,-99.99,,,0.00,weatherlink.com 1.10,2013-02-09 14:31:00,
2013-02-09 09:47:00,39.8,26.0,30.28,South,186,0.0,-999.0,58,-99.99,,,0.00,weatherlink.com 1.10,2013-02-09 14:47:00,
2013-02-09 10:16:00,40.2,25.0,30.28,South,186,0.0,-999.0,55,-99.99,,,0.00,weatherlink.com 1.10,2013-02-09 15:16:00,
2013-02-09 10:31:00,42.3,24.0,30.29,SSE,167,0.0,-999.0,49,-99.99,,,0.00,weatherlink.com 1.10,2013-02-09 15:31:00,
2013-02-09 10:46:00,42.9,23.0,30.30,SSE,163,0.0,-999.0,46,-99.99,,,0.00,weatherlink.com 1.10,2013-02-09 15:46:00,
2013-02-09 11:16:00,43.2,22.0,30.30,South,175,0.0,-999.0,44,-99.99,,,0.00,weatherlink.com 1.10,2013-02-09 16:16:00,
2013-02-09 11:32:00,44.7,24.0,30.30,South,175,0.0,-999.0,44,-99.99,,,0.00,weatherlink.com 1.10,2013-02-09 16:32:00,
2013-02-09 11:46:00,45.4,24.0,30.30,SSW,193,1.0,-999.0,43,-99.99,,,0.00,weatherlink.com 1.10,2013-02-09 16:46:00,
2013-02-09 12:16:00,45.8,24.0,30.29,South,174,0.0,-999.0,42,-99.99,,,0.00,weatherlink.com 1.10,2013-02-09 17:16:00,
2013-02-09 12:32:00,47.0,24.0,30.28,South,173,0.0,-999.0,40,-99.99,,,0.00,weatherlink.com 1.10,2013-02-09 17:32:00,
2013-02-09 12:47:00,47.7,22.0,30.28,South,177,0.0,-999.0,37,-99.99,,,0.00,weatherlink.com 1.10,2013-02-09 17:47:00,
2013-02-09 13:16:00,47.8,24.0,30.28,South,190,0.0,-999.0,39,-99.99,,,0.00,weatherlink.com 1.10,2013-02-09 18:16:00,
2013-02-09 13:31:00,49.5,23.0,30.28,South,175,0.0,-999.0,36,-99.99,,,0.00,weatherlink.com 1.10,2013-02-09 18:31:00,
2013-02-09 13:46:00,50.0,23.0,30.27,South,188,0.0,-999.0,35,-99.99,,,0.00,weatherlink.com 1.10,2013-02-09 18:46:00,
2013-02-09 14:16:00,50.3,24.0,30.27,South,188,0.0,-999.0,36,-99.99,,,0.00,weatherlink.com 1.10,2013-02-09 19:16:00,
2013-02-09 14:31:00,51.9,23.0,30.26,South,178,4.0,-999.0,32,-99.99,,,0.00,weatherlink.com 1.10,2013-02-09 19:31:00,
2013-02-09 14:46:00,52.2,24.0,30.27,South,175,0.0,-999.0,34,-99.99,,,0.00,weatherlink.com 1.10,2013-02-09 19:46:00,
2013-02-09 15:16:00,52.3,25.0,30.26,South,175,0.0,-999.0,34,-99.99,,,0.00,weatherlink.com 1.10,2013-02-09 20:16:00,
2013-02-09 15:31:00,52.7,23.0,30.27,South,176,0.0,-999.0,31,-99.99,,,0.00,weatherlink.com 1.10,2013-02-09 20:31:00,
2013-02-09 15:46:00,52.6,24.0,30.27,South,176,0.0,-999.0,33,-99.99,,,0.00,weatherlink.com 1.10,2013-02-09 20:46:00,
2013-02-09 16:16:00,52.5,22.0,30.27,South,176,0.0,-999.0,31,-99.99,,,0.00,weatherlink.com 1.10,2013-02-09 21:16:00,
2013-02-09 16:31:00,52.6,23.0,30.27,SSW,205,0.0,-999.0,32,-99.99,,,0.00,weatherlink.com 1.10,2013-02-09 21:31:00,
2013-02-09 16:46:00,52.3,25.0,30.28,SSW,205,0.0,-999.0,35,-99.99,,,0.00,weatherlink.com 1.10,2013-02-09 21:46:00,
2013-02-09 17:16:00,51.5,24.0,30.29,SSW,205,0.0,-999.0,34,-99.99,,,0.00,weatherlink.com 1.10,2013-02-09 22:16:00,
2013-02-09 17:31:00,51.0,25.0,30.30,SSW,205,0.0,-999.0,36,-99.99,,,0.00,weatherlink.com 1.10,2013-02-09 22:31:00,
2013-02-09 18:00:00,50.8,22.0,30.30,SSW,205,0.0,-999.0,32,-99.99,,,0.00,weatherlink.com 1.10,2013-02-09 23:00:00,
2013-02-09 18:16:00,48.1,28.0,30.30,SSW,205,0.0,-999.0,45,-99.99,,,0.00,weatherlink.com 1.10,2013-02-09 23:16:00,
2013-02-09 18:31:00,46.5,28.0,30.30,SSW,205,0.0,-999.0,49,-99.99,,,0.00,weatherlink.com 1.10,2013-02-09 23:31:00,
2013-02-09 18:46:00,45.5,27.0,30.31,SSW,205,0.0,-999.0,49,-99.99,,,0.00,weatherlink.com 1.10,2013-02-09 23:46:00,
2013-02-09 19:01:00,44.3,28.0,30.31,SSW,205,0.0,-999.0,53,-99.99,,,0.00,weatherlink.com 1.10,2013-02-10 00:01:00,
2013-02-09 19:21:00,43.8,28.0,30.31,SSW,205,0.0,-999.0,54,-99.99,,,0.00,weatherlink.com 1.10,2013-02-10 00:21:00,
2013-02-09 19:31:00,42.1,29.0,30.32,SSW,205,0.0,-999.0,59,-99.99,,,0.00,weatherlink.com 1.10,2013-02-10 00:31:00,
2013-02-09 19:46:00,41.2,28.0,30.33,SSW,205,0.0,-999.0,60,-99.99,,,0.00,weatherlink.com 1.10,2013-02-10 00:46:00,
2013-02-09 20:01:00,40.4,29.0,30.33,SSW,205,0.0,-999.0,63,-99.99,,,0.00,weatherlink.com 1.10,2013-02-10 01:01:00,
2013-02-09 20:33:00,40.0,29.0,30.33,SSW,205,0.0,-999.0,65,-99.99,,,0.00,weatherlink.com 1.10,2013-02-10 01:33:00,
2013-02-09 20:47:00,38.2,29.0,30.34,SSW,205,0.0,-999.0,70,-99.99,,,0.00,weatherlink.com 1.10,2013-02-10 01:47:00,
2013-02-09 21:01:00,37.7,29.0,30.35,SSW,205,0.0,-999.0,71,-99.99,,,0.00,weatherlink.com 1.10,2013-02-10 02:01:00,
2013-02-09 21:35:00,37.3,29.0,30.35,SSW,205,0.0,-999.0,71,-99.99,,,0.00,weatherlink.com 1.10,2013-02-10 02:35:00,
2013-02-09 21:46:00,36.4,29.0,30.36,SSW,205,0.0,-999.0,73,-99.99,,,0.00,weatherlink.com 1.10,2013-02-10 02:46:00,
2013-02-09 22:01:00,35.7,28.0,30.36,SSW,205,0.0,-999.0,73,-99.99,,,0.00,weatherlink.com 1.10,2013-02-10 03:01:00,
2013-02-09 22:33:00,35.4,27.0,30.36,SSW,205,0.0,-999.0,72,-99.99,,,0.00,weatherlink.com 1.10,2013-02-10 03:33:00,
2013-02-09 22:47:00,33.7,27.0,30.37,SSW,205,0.0,-999.0,76,-99.99,,,0.00,weatherlink.com 1.10,2013-02-10 03:47:00,
2013-02-09 23:01:00,33.4,26.0,30.37,SSW,205,0.0,-999.0,75,-99.99,,,0.00,weatherlink.com 1.10,2013-02-10 04:01:00,
2013-02-09 23:33:00,33.3,27.0,30.37,SSW,205,0.0,-999.0,77,-99.99,,,0.00,weatherlink.com 1.10,2013-02-10 04:33:00,
2013-02-09 23:46:00,32.6,26.0,30.37,SSW,205,0.0,-999.0,78,-99.99,,,0.00,weatherlink.com 1.10,2013-02-10 04:46:00,